This is the latest recevied weather packets stored in our database for station/object DC4THF-13. If no packets are shown the sender has not sent any weather packets the latest 10 day(s).
| Time | Temp. | Humidity | Pressure | Rain* | Wind** | Luminosity | Snow |
|---|---|---|---|---|---|---|---|
| 1787517178 | 14.44° C | 70% | 1015.4 hPa | 0 mm | - | - | - |
| 1787516575 | 14.44° C | 69% | 1015.5 hPa | 0 mm | - | - | - |
| 1787515971 | 15° C | 68% | 1015.4 hPa | 0 mm | - | - | - |
| 1787515368 | 15° C | 68% | 1015.4 hPa | 0 mm | - | - | - |
| 1787514765 | 15° C | 68% | 1015.4 hPa | 0 mm | - | - | - |
| 1787514162 | 15° C | 68% | 1015.4 hPa | 0 mm | - | - | - |
| 1787513559 | 15.56° C | 68% | 1015.4 hPa | 0 mm | - | - | - |
| 1787512956 | 15.56° C | 68% | 1015.5 hPa | 0 mm | - | - | - |
| 1787512353 | 15.56° C | 69% | 1015.5 hPa | 0 mm | - | - | - |
| 1787511750 | 15.56° C | 69% | 1015.5 hPa | 0 mm | - | - | - |
| 1787511147 | 15.56° C | 68% | 1015.6 hPa | 0 mm | - | - | - |
| 1787510574 | 15.56° C | 67% | 1015.3 hPa | 0 mm | - | - | - |
| 1787509971 | 15.56° C | 66% | 1015.1 hPa | 0 mm | - | - | - |
| 1787509368 | 16.11° C | 65% | 1015.1 hPa | 0 mm | - | - | - |
| 1787508765 | 16.11° C | 64% | 1015.1 hPa | 0 mm | - | - | - |
| 1787508162 | 16.11° C | 63% | 1015.1 hPa | 0 mm | - | - | - |
| 1787507559 | 16.67° C | 63% | 1015.1 hPa | 0 mm | - | - | - |
| 1787506956 | 17.22° C | 59% | 1015.1 hPa | 0 mm | - | - | - |
| 1787506353 | 17.78° C | 56% | 1014.9 hPa | 0 mm | - | - | - |
| 1787505750 | 17.78° C | 55% | 1014.9 hPa | 0 mm | - | - | - |
| 1787505147 | 17.78° C | 55% | 1014.8 hPa | 0 mm | - | - | - |
| 1787504544 | 17.78° C | 54% | 1014.7 hPa | 0 mm | - | - | - |
| 1787503941 | 18.33° C | 53% | 1014.7 hPa | 0 mm | - | - | - |
| 1787503338 | 17.78° C | 53% | 1014.7 hPa | 0 mm | - | - | - |
| 1787502734 | 18.33° C | 52% | 1014.7 hPa | 0 mm | - | - | - |
* Rain latest hour (hover to see other rain measurements)
** Current wind speed in m/s (hover to see current wind gust speed)